Tracking 22879 objects as of 20-Apr-2021
HD Live streaming from Space Station
objects crossing your sky now

GLOBALSTAR M062

Track GLOBALSTAR M062 now!
10-day predictions
GLOBALSTAR M062 is classified as:


NORAD ID: 26082
Int'l Code: 2000-008B
Perigee: 1,493.7 km
Apogee: 1,505.3 km
Inclination: 52.0 °
Period: 115.8 minutes
Semi major axis: 7870 km
RCS: 2.6606 m2 (large)
Launch date: February 8, 2000
Source: Globalstar (GLOB)
Launch site: AIR FORCE EASTERN TEST RANGE (AFETR)
aabbcc
Your satellite tracking list
Your tracking list is empty




NASA's NSSDC Master Catalog

Two Line Element Set (TLE):
1 26082U 00008B   21109.66458736 -.00000086  00000-0  84414-4 0  9994
2 26082  51.9840 243.7924 0007369 107.5064 265.7778 12.43374246307734
Source of the keplerian elements: AFSPC